User: anonymous   Login
Location: Mentone
(34.5413°N, 85.5351°W)
Time: 10:25:05
(UTC-05:00)
Language:

AO-Echo - Orbit

View from above orbital plane
View from above orbital plane
View from above satellite
View from above satellite

Ground track
Ground track

The orbit data is extracted from the following two-line orbital elements,

1 28375U 04025K   16148.86142335  .00000049  00000-0  27706-4 0  9997
2 28375  98.3273  85.0744 0082851   6.8538 353.3764 14.41779828626298
Epoch (UTC): 27 May 2016 20:40:26
Eccentricity: 0.0082851
inclination: 98.3273°
perigee height: 693 km
apogee height: 812 km
right ascension of ascending node: 85.0744°
argument of perigee: 6.8538°
revolutions per day: 14.41779828
mean anomaly at epoch: 353.3764°
orbit number at epoch: 62629

The dashed part of the orbit path shows where the satellite is in the earth's shadow,  

DLR